Flag for India Weather past 2 weeks in Faridabad, Haryana, India

Now
102 °F

Haze.


Feels Like: 98 °F
Forecast: 84 / 110 °F
Wind: 6 mph from West

Location: New Delhi Palam Airport

Current Time: May 23, 2015 at 9:31:17 PM

Latest Report: May 23, 2015 at 8:30 PM


Visibility: 2 mi

Pressure: 29.47 "Hg

Humidity: 14%

Dew point: 45 °F

Location of FaridabadLocation

Historic Weather in Faridabad — Graph

°F

Faridabad temperature yesterday

Maximum temperature yesterday: 111 °F (at 2:30 PM)
Minimum temperature yesterday: 84 °F (at 5:00 AM)
Average temperature yesterday: 98 °F

Past Weeks' High & Low Weather Summary

 TemperatureHumidityPressure
High113 °F (May 21, 4:00 PM)89% (May 13, 12:30 PM)29.86 "Hg (May 13, 12:30 PM)
Low72 °F (May 20, 5:30 AM)8% (May 22, 4:30 PM)29.42 "Hg (May 23, 6:00 PM)
Average92 °F35%29.66 "Hg
* Reported May 8 7:30 PM — May 23 8:00 PM, Faridabad, Weather by CustomWeather, © 2015

Note: Actual official high and low records may vary slightly from our data, if they occured in-between our weather recording intervals... More about our weather records

Advertising

Faridabad weather history for previous 24 hours

 ConditionsComfort  
Time TempWeatherWind HumidityBarometerVisibility
8:00 PM
Sat, May 23
104 °FHaze.7 mph12%29.45 "Hg2 mi
7:00 PM104 °FHaze.7 mph12%29.45 "Hg2 mi
6:30 PM108 °FHaze.10 mph10%29.42 "Hg2 mi
6:00 PM109 °FHaze.10 mph9%29.42 "Hg2 mi
5:30 PM111 °FHaze.12 mph9%29.45 "Hg2 mi
5:00 PM111 °FHaze.15 mph9%29.45 "Hg2 mi
4:30 PM111 °FHaze.14 mph9%29.45 "Hg2 mi
4:00 PM111 °FHaze.13 mph11%29.45 "Hg2 mi
3:30 PM111 °FHaze.13 mph11%29.45 "Hg2 mi
3:00 PM111 °FHaze.10 mph11%29.47 "Hg2 mi
2:30 PM111 °FHaze.10 mph11%29.47 "Hg2 mi
2:00 PM111 °FHaze.9 mph11%29.47 "Hg2 mi
1:00 PM111 °FHaze.9 mph10%29.50 "Hg2 mi
12:30 PM109 °FHaze.8 mph13%29.53 "Hg1 mi
12:00 PM108 °FHaze.9 mph17%29.53 "Hg1 mi
11:30 AM108 °FHaze.9 mph17%29.53 "Hg1 mi
11:00 AM104 °FHaze.9 mph19%29.56 "Hg1 mi
10:30 AM104 °FHaze.13 mph19%29.56 "Hg1 mi
10:00 AM102 °FHaze.13 mph20%29.56 "Hg1 mi
9:30 AM100 °FHaze.12 mph21%29.56 "Hg2 mi
9:00 AM99 °FHaze.13 mph24%29.56 "Hg2 mi
8:30 AM95 °FHaze.13 mph26%29.56 "Hg2 mi
8:00 AM93 °FHaze.7 mph28%29.56 "Hg2 mi
7:30 AM91 °FHaze.7 mph30%29.56 "Hg2 mi
7:00 AM88 °FHaze.5 mph33%29.53 "Hg2 mi
6:30 AM86 °FHaze.7 mph35%29.53 "Hg2 mi
6:00 AM86 °FHaze.6 mph35%29.53 "Hg2 mi
5:30 AM86 °FHaze.5 mph33%29.50 "Hg2 mi
5:00 AM86 °FHaze.6 mph33%29.50 "Hg2 mi
4:30 AM88 °FHaze.6 mph31%29.50 "Hg2 mi
3:00 AM90 °FHaze.6 mph27%29.50 "Hg2 mi
2:30 AM90 °FHaze.6 mph27%29.53 "Hg2 mi
2:00 AM93 °FHaze.8 mph23%29.53 "Hg2 mi
1:30 AM93 °FHaze.8 mph23%29.53 "Hg2 mi
1:00 AM93 °FHaze.8 mph21%29.53 "Hg2 mi
12:30 AM93 °FHaze.No wind21%29.53 "Hg2 mi
12:00 AM95 °FHaze.No wind19%29.53 "Hg2 mi
11:30 PM
Fri, May 22
95 °FHaze.No wind19%29.53 "Hg2 mi
11:00 PM97 °FHaze.No wind18%29.53 "Hg2 mi
10:30 PM97 °FHaze.6 mph18%29.56 "Hg2 mi
10:00 PM97 °FPassing clouds.7 mph18%29.56 "Hg2 mi
9:30 PM97 °FPassing clouds.6 mph18%29.56 "Hg2 mi
Weather by CustomWeather, © 2015

See weather overviewHow to use our weather pages